Weather in Zelenoborsk

Russia / Khanty-Mansi Autonomous Okrug — Yugra     61°28′24″N   64°03′00″E
temp.,
°C
wind,
m/s
gust,
m/s
humid.,
%
clouds,
%
prec.,
mm/h
press.,
hPa
HPBL,
m
9 may, sun
sun923:00+12nnw227171 0.1 101722
02:00+11ne1181100 0.1 101818
05:00+10ne2388100 0.5 102083
08:00+13ne3576100 0.2 1020228
11:00+17ese2357100 0.2 1021779
14:00+21se234079 0.0 10202283
17:00+20se244599 0.0 1021823
20:00+16se385997 0.0 1022218
10 may, mon
mon1023:00+14se4116215 0.0 1023308
02:00+11se311751 0.0 1024271
05:00+10se310792 0.0 1026253
08:00+15sse59561 0.0 1026462
11:00+19s56428 0.0 10261122
14:00+21s453699 0.0 10261710
17:00+21s4535100 0.0 10251811
20:00+17s3850100 0.0 1025243
11 may, tue
tue1123:00+14s3106469 0.0 1025206
02:00+12s3116298 0.0 1025255
05:00+11ssw31162100 0.0 1024303
08:00+14sw3655100 0.0 1024303
11:00+15w4872100 0.3 1025888
14:00+11nnw368486 0.8 1025462
17:00+12nnw477198 0.9 10271004
20:00+10n266974 0.0 1028545
12 may, wed
wed1223:00+8sw1178100 0.0 102810
02:00+8sw2276100 0.0 102851
05:00+9w1266100 0.0 102747
08:00+9w2773100 0.1 1028320
11:00+9w238670 0.8 1028288
14:00+16wnw3555100 0.0 10261450
17:00+16wnw2556100 0.0 10261178
20:00+14w2270100 0.0 102553
13 may, thu
thu1323:00+12wsw27858 0.0 1025129
02:00+11w3109195 0.0 1023186
05:00+11wnw3128893 0.0 1023287
08:00+16nw51068100 0.0 10241121
11:00+16nne476498 0.1 10251136
14:00+18n474799 0.0 10261606
17:00+18n3540100 0.0 10261726
20:00+15ene2251100 0.0 102740